TimePDT,TemperatureF,Dew PointF,Humidity,Sea Level PressureIn,VisibilityMPH,Wind Direction,Wind SpeedMPH,Gust SpeedMPH,PrecipitationIn,Events,Conditions,WindDirDegrees,DateUTC
12:53 AM,39.0,34.0,82,30.03,10.0,Calm,Calm,-,N/A,,Clear,0,2013-10-11 07:53:00
1:53 AM,41.0,35.1,79,30.04,10.0,West,9.2,-,N/A,,Clear,260,2013-10-11 08:53:00
2:53 AM,37.9,33.1,83,30.05,10.0,WNW,6.9,-,N/A,,Partly Cloudy,290,2013-10-11 09:53:00
3:53 AM,41.0,35.1,79,30.07,10.0,West,8.1,-,N/A,,Mostly Cloudy,270,2013-10-11 10:53:00
4:53 AM,41.0,36.0,82,30.08,10.0,West,8.1,-,N/A,,Overcast,270,2013-10-11 11:53:00
5:53 AM,42.1,37.0,82,30.08,10.0,West,6.9,-,N/A,,Mostly Cloudy,280,2013-10-11 12:53:00
6:53 AM,43.0,37.9,82,30.10,10.0,WNW,6.9,-,N/A,,Mostly Cloudy,290,2013-10-11 13:53:00
7:53 AM,45.0,39.0,80,30.10,10.0,West,3.5,-,N/A,,Mostly Cloudy,270,2013-10-11 14:53:00
8:53 AM,48.0,39.0,71,30.12,10.0,Calm,Calm,-,N/A,,Mostly Cloudy,0,2013-10-11 15:53:00
9:53 AM,53.1,41.0,64,30.13,10.0,West,4.6,-,N/A,,Mostly Cloudy,270,2013-10-11 16:53:00
10:53 AM,55.9,39.9,55,30.12,10.0,Calm,Calm,-,N/A,,Mostly Cloudy,0,2013-10-11 17:53:00
11:53 AM,60.1,37.9,44,30.11,10.0,North,3.5,-,N/A,,Mostly Cloudy,350,2013-10-11 18:53:00
12:53 PM,62.1,36.0,38,30.09,10.0,Calm,Calm,-,N/A,,Clear,0,2013-10-11 19:53:00
1:53 PM,62.1,36.0,38,30.07,10.0,NE,3.5,-,N/A,,Scattered Clouds,50,2013-10-11 20:53:00
2:53 PM,62.1,36.0,38,30.06,10.0,Calm,Calm,-,N/A,,Scattered Clouds,0,2013-10-11 21:53:00
3:53 PM,61.0,35.1,38,30.06,10.0,Calm,Calm,-,N/A,,Scattered Clouds,0,2013-10-11 22:53:00
4:53 PM,61.0,35.1,38,30.04,10.0,Calm,Calm,-,N/A,,Scattered Clouds,0,2013-10-11 23:53:00
5:53 PM,59.0,35.1,41,30.03,10.0,Calm,Calm,-,N/A,,Partly Cloudy,0,2013-10-12 00:53:00
6:53 PM,52.0,39.0,61,30.03,10.0,Calm,Calm,-,N/A,,Scattered Clouds,0,2013-10-12 01:53:00
7:53 PM,51.1,39.9,66,30.04,10.0,Calm,Calm,-,N/A,,Clear,0,2013-10-12 02:53:00
8:53 PM,50.0,39.0,66,30.04,10.0,WSW,3.5,-,N/A,,Overcast,240,2013-10-12 03:53:00
9:53 PM,51.1,39.0,63,30.04,10.0,West,5.8,-,N/A,,Overcast,270,2013-10-12 04:53:00
10:53 PM,54.0,39.0,57,30.03,10.0,NNW,4.6,-,N/A,,Overcast,330,2013-10-12 05:53:00
11:53 PM,50.0,39.0,66,30.02,10.0,West,3.5,-,N/A,,Mostly Cloudy,260,2013-10-12 06:53:00